Theta_e
321 321 320 322 322 321 322 322 322 322 322 322 321 321 321 321 321 323 324 325 325 325 324 322 322 323 313 301 302 318 328 327 313 310 304 302 299 298 294 295 295 294 295 298 300 298 297
323 322 322 323 322 322 323 323 323 323 322 322 321 320 320 320 321 323 324 325 325 324 322 322 322 321 305 296 314 320 317 312 309 306 303 303 300 301 296 295 293 294 295 296 297 297 296
326 325 324 324 323 323 323 323 323 323 322 322 321 320 320 320 321 322 324 324 324 322 322 322 322 317 305 300 315 318 315 310 309 307 304 305 303 300 299 295 298 296 292 294 294 295 295
325 325 325 325 324 323 323 323 322 323 322 321 320 320 319 320 321 322 323 324 323 320 321 320 322 311 297 306 309 313 310 306 308 307 306 305 304 301 298 298 296 291 289 286 293 294 294
326 326 325 325 324 323 323 323 323 322 322 321 320 319 319 320 320 322 322 323 322 320 321 322 311 304 297 309 303 304 304 304 304 304 303 306 302 297 296 290 287 288 283 286 290 295 293
326 325 325 325 324 324 324 323 323 322 321 320 319 319 319 320 321 321 322 321 318 318 317 318 314 298 300 298 302 303 302 305 301 300 299 298 294 290 289 286 281 284 284 286 287 292 291
326 325 325 325 325 324 324 323 323 322 321 320 319 319 320 320 322 323 318 310 306 305 306 303 300 298 301 302 304 301 303 301 301 297 290 293 288 285 288 290 288 287 286 286 288 293 289
326 325 325 325 324 324 323 323 323 323 322 320 319 320 320 321 322 322 314 306 304 303 300 306 306 306 303 303 299 300 302 296 295 291 293 290 286 292 292 291 290 288 286 286 289 292 289
326 325 325 324 324 324 323 322 322 323 322 320 319 320 320 322 321 316 309 306 307 304 298 302 304 304 302 304 300 299 300 296 293 290 291 288 292 295 293 291 289 288 286 286 288 289 288
325 325 324 324 323 323 322 322 321 321 320 320 320 320 320 321 314 312 307 308 308 304 292 296 298 298 299 301 296 298 299 296 292 291 290 289 294 293 290 290 291 287 291 290 288 284 281
325 324 324 323 322 322 321 320 320 320 319 319 319 320 320 320 311 310 310 308 307 302 282 296 295 302 298 297 295 293 297 295 291 292 291 290 289 288 289 290 292 289 290 288 286 283 281
324 324 323 322 322 321 321 320 320 319 319 319 319 319 320 318 313 312 309 309 307 294 283 291 293 292 291 292 292 294 293 294 293 290 289 290 290 291 291 290 290 291 287 286 283 282 277
324 323 323 322 321 321 320 321 321 320 319 319 318 319 318 319 312 310 310 308 293 287 295 289 289 291 290 289 289 290 289 287 286 283 283 287 288 289 290 287 288 287 284 279 276 274 276
323 323 322 322 322 321 320 320 320 320 320 319 318 318 317 318 312 311 311 301 286 291 292 294 291 290 289 290 289 289 287 285 288 287 285 284 283 288 290 288 287 285 285 278 270 273 276
322 322 322 322 321 321 320 320 319 319 319 318 318 314 314 313 314 314 306 291 292 293 297 293 292 289 289 291 290 287 286 286 290 289 286 283 284 288 288 289 291 286 283 286 280 270 273
320 321 321 320 320 320 320 319 318 318 317 315 308 307 307 314 315 311 300 293 296 299 297 297 290 293 287 291 290 287 287 289 289 291 292 288 283 289 288 290 288 287 289 281 280 270 270
313 319 320 319 319 319 318 315 314 314 313 311 305 301 306 314 311 302 293 293 297 299 298 294 293 291 290 289 291 286 287 290 290 290 293 291 287 284 287 286 285 284 283 283 283 279 271
309 309 311 312 314 315 315 314 314 313 311 308 302 295 306 311 296 295 292 295 297 295 298 296 294 291 289 290 288 287 287 290 293 293 289 290 287 277 284 286 287 286 284 284 277 275 277
308 308 308 307 307 308 310 313 314 312 311 304 298 295 305 307 291 290 294 295 296 294 294 294 292 293 293 291 287 288 288 291 293 292 289 290 281 271 277 281 286 283 285 285 284 282 273
307 307 306 306 306 305 305 306 311 307 305 303 296 289 295 299 297 293 291 292 292 296 294 295 293 294 291 288 290 286 287 290 292 292 296 293 283 279 276 276 282 280 282 283 283 275 275
307 307 306 305 304 303 303 304 304 303 303 300 294 291 293 287 291 292 294 292 291 289 294 295 291 291 290 286 286 286 287 288 290 294 291 290 283 282 282 283 283 281 281 281 280 279 275
307 306 305 305 304 303 302 301 301 301 301 296 289 288 290 290 294 292 292 289 289 291 291 288 288 290 291 288 287 284 287 287 286 288 287 286 277 279 274 281 281 278 280 279 280 280 279
304 306 305 304 304 303 302 301 301 300 299 292 291 291 290 287 288 290 288 288 289 290 290 291 291 288 287 289 288 286 287 286 287 285 283 283 277 271 269 275 273 267 273 277 278 278 277
302 302 304 305 304 304 303 302 302 300 297 293 291 290 286 283 286 287 287 290 288 289 287 286 288 289 285 286 285 283 281 281 283 283 284 279 274 273 266 264 259 275 276 276 276 277 275
302 302 303 303 304 303 304 303 301 301 299 292 292 289 286 281 286 285 285 286 287 287 283 283 283 285 286 283 279 273 271 275 276 278 280 281 278 270 267 262 269 274 275 274 273 273 275
302 302 302 302 302 303 302 302 302 301 301 292 291 292 287 281 281 286 284 284 281 280 279 280 283 284 284 281 275 269 267 270 267 271 277 279 279 274 260 258 259 271 273 276 276 267 271
302 302 302 302 302 302 302 302 302 302 302 294 290 292 286 280 283 283 281 282 284 281 278 279 280 281 283 276 270 267 266 273 266 265 264 266 272 271 269 259 264 273 275 277 264 269 270
301 302 302 302 302 302 302 302 302 301 301 296 291 293 287 280 283 285 285 282 281 281 277 277 279 279 277 274 270 272 267 271 268 270 269 268 266 265 264 264 262 276 275 271 275 277 277
301 301 301 302 302 302 302 302 302 302 302 300 291 293 291 282 282 288 288 288 286 285 280 275 279 275 278 272 269 271 264 265 266 264 274 268 271 266 269 268 276 277 278 279 279 277 278
Wind_Speed
14 14 14 13 11 10 9 8 8 7 6 6 6 6 6 6 7 8 9 10 10 11 11 10 8 7 2 0 7 1 5 4 4 3 1 2 3 4 3 3 1 4 4 3 6 9 5
15 15 14 14 13 12 10 9 9 9 8 7 7 7 6 7 8 9 11 11 11 12 10 8 6 3 1 4 2 5 6 4 4 3 1 3 3 4 2 3 2 0 3 6 7 8 5
16 17 17 16 14 13 12 10 10 10 9 9 8 7 7 7 8 9 10 11 12 11 9 7 2 1 1 9 2 4 4 3 3 2 3 1 2 2 2 2 3 2 5 8 7 3 5
18 18 18 17 16 14 14 13 12 11 10 10 9 8 8 8 8 10 11 11 10 8 6 3 3 1 6 0 1 3 1 2 2 2 3 0 2 4 2 0 6 2 3 4 4 2 1
18 17 18 17 16 15 16 13 12 12 11 10 9 8 9 9 9 9 11 13 10 4 2 4 0 0 7 1 2 1 1 4 3 3 4 2 3 2 4 5 4 3 3 5 8 4 2
20 19 18 17 17 16 15 14 13 12 12 11 10 9 10 9 8 9 11 10 1 0 1 2 2 2 2 4 3 2 1 5 4 4 4 4 5 4 3 4 6 6 4 5 6 3 2
21 21 19 19 18 17 16 15 14 13 12 11 11 10 10 9 8 5 6 3 2 1 2 9 6 3 4 2 1 2 1 3 3 4 4 0 4 7 13 11 4 3 4 6 4 8 2
21 21 20 20 19 18 17 16 15 15 13 12 11 11 10 9 7 6 3 2 2 1 7 7 6 5 2 5 3 2 4 6 4 5 5 4 7 14 3 5 7 4 5 6 6 5 1
22 22 22 21 20 19 18 17 16 15 14 13 12 12 10 7 5 3 4 3 3 1 1 7 4 4 3 6 4 6 8 4 5 7 9 9 8 5 6 5 5 5 6 5 7 5 4
22 23 23 22 21 20 20 18 17 16 15 13 13 12 9 5 2 3 3 6 4 2 2 7 4 2 3 4 2 1 1 4 3 10 6 6 7 5 4 4 5 5 7 6 4 3 4
18 20 23 22 23 23 21 19 19 17 16 15 14 13 11 11 1 3 3 6 5 3 6 2 3 1 2 5 6 1 1 2 4 5 7 7 4 4 4 8 9 8 4 3 1 2 1
22 20 20 21 24 24 22 21 20 19 19 17 15 14 12 5 1 2 7 7 2 4 11 4 4 5 4 2 3 3 2 2 1 2 2 6 1 5 7 3 4 4 4 6 4 3 2
21 21 21 20 21 22 24 23 22 22 21 18 18 18 13 7 7 10 7 4 4 7 1 6 6 6 5 6 3 5 6 5 7 5 5 1 5 2 2 4 2 5 6 3 4 2 7
20 21 20 21 22 23 25 24 25 24 23 22 20 19 11 5 5 15 4 4 10 9 8 3 5 6 7 8 5 6 6 4 6 2 4 6 4 8 4 5 7 6 8 7 7 4 5
20 20 19 21 21 22 22 22 24 24 24 22 18 4 5 5 7 2 8 8 8 8 7 9 4 4 4 5 5 4 7 6 8 11 8 6 5 1 1 2 6 4 4 3 6 2 3
18 18 18 17 20 21 20 15 17 17 19 22 6 3 2 10 11 6 6 12 6 5 5 5 9 6 8 6 7 8 9 4 4 5 2 5 1 2 1 2 2 4 5 3 3 2 5
21 4 15 14 16 15 18 21 19 19 20 11 4 6 3 5 2 3 9 5 4 5 4 5 6 6 6 7 8 6 5 1 4 5 4 5 5 3 3 5 9 2 3 2 3 6 7
15 19 18 17 14 11 20 24 24 23 16 7 3 3 3 3 3 1 5 7 5 5 4 3 4 3 7 7 5 6 9 6 8 8 8 4 4 4 6 2 1 3 6 6 6 6 3
10 13 14 17 17 13 10 10 21 25 14 5 5 2 2 1 8 5 3 6 3 5 5 7 7 5 4 7 3 7 6 2 6 8 11 8 1 3 7 6 2 4 3 4 6 4 6
7 9 10 12 12 10 10 8 9 14 10 2 5 4 1 2 1 7 9 8 9 5 4 3 5 4 4 4 2 4 4 2 1 2 3 7 5 9 10 5 3 3 5 4 5 4 4
9 10 13 10 11 10 8 8 10 12 9 2 1 6 5 7 10 8 12 12 14 9 6 11 6 12 8 6 4 6 4 2 3 2 2 4 5 4 3 5 4 5 8 7 8 6 8
12 12 12 14 13 9 9 7 6 9 6 3 2 5 2 1 10 16 14 11 15 11 10 8 7 10 10 12 9 8 7 5 5 2 4 3 1 3 3 3 5 7 14 6 12 13 11
9 13 13 13 13 13 11 7 9 9 7 3 2 2 1 3 2 13 9 10 15 9 1 4 12 7 8 8 4 3 4 4 6 9 6 6 7 4 6 2 3 9 10 17 12 9 9
10 9 10 15 16 16 15 15 12 11 9 3 1 2 2 3 6 5 3 12 9 11 8 1 1 12 4 12 8 7 8 6 4 1 2 6 5 2 3 4 3 6 2 4 10 8 7
16 16 14 12 12 13 17 17 15 14 15 3 1 2 2 1 3 1 6 3 5 5 4 3 2 2 12 7 5 5 5 5 3 5 5 2 5 3 5 5 7 13 7 8 8 9 7
19 18 17 16 15 18 17 16 18 17 18 5 3 2 3 4 5 2 5 6 6 5 3 3 3 5 6 4 4 7 7 4 4 3 5 3 1 6 4 6 11 8 1 5 5 6 7
17 21 19 19 18 17 18 18 16 17 16 5 2 3 4 3 3 4 5 7 6 5 4 4 4 3 4 4 3 5 5 5 6 8 5 4 1 14 10 4 10 9 6 2 6 9 5
20 17 20 18 18 19 18 20 20 19 19 8 3 4 5 3 4 3 3 4 3 2 7 5 5 1 2 4 5 5 4 7 3 3 8 8 9 6 3 4 10 9 6 8 7 3 6
22 20 19 17 17 17 18 19 19 18 18 13 3 3 3 4 3 2 4 4 2 6 8 2 4 6 6 4 1 3 1 1 5 5 3 3 9 9 13 10 4 8 8 13 5 6 7
Wind_Direction
223 225 228 225 225 228 227 230 236 234 238 249 259 275 288 297 306 310 313 315 316 317 314 313 313 317 294 349 254 113 99 96 103 108 100 149 134 157 193 215 323 186 259 275 279 290 249
218 218 225 224 230 232 234 235 239 245 243 244 249 258 273 290 297 303 309 313 317 319 313 308 305 320 162 230 125 137 116 106 130 128 132 151 173 198 222 261 162 298 271 273 275 267 267
218 211 215 218 221 230 233 234 239 244 243 243 245 253 261 273 286 295 301 307 312 318 316 314 234 219 191 240 90 142 135 165 150 144 147 85 202 145 121 317 317 317 326 320 276 260 236
221 221 217 220 224 230 229 230 233 239 239 239 240 240 250 262 276 292 298 300 299 305 330 356 155 157 239 19 315 115 144 68 90 102 115 126 111 124 161 163 4 334 32 340 281 163 158
225 228 224 221 226 229 229 225 228 229 231 235 237 236 240 257 276 289 301 301 291 248 4 121 55 212 265 335 139 180 135 140 80 43 37 66 64 116 50 89 0 347 225 211 308 223 146
219 224 226 225 226 227 217 220 220 223 227 228 228 230 245 253 273 304 316 317 91 304 217 242 254 2 229 214 143 120 38 124 107 83 39 58 52 87 42 101 220 215 213 234 226 272 115
220 220 221 224 225 223 220 218 217 220 221 221 221 225 239 258 276 316 4 3 342 312 224 193 199 222 138 79 90 77 114 97 92 70 152 148 105 202 208 201 188 184 205 241 282 267 210
222 221 220 220 221 222 219 220 217 218 213 212 214 224 235 247 281 313 133 201 246 178 303 234 237 271 128 185 118 225 122 140 146 185 124 60 213 230 189 166 219 256 255 259 268 253 215
220 221 221 220 217 220 216 216 215 213 209 206 208 219 230 247 295 291 199 210 120 18 250 291 203 179 183 145 208 201 151 157 164 172 193 174 217 168 170 210 171 216 198 225 237 332 283
230 221 219 218 219 216 214 208 214 208 206 204 207 211 212 193 278 200 214 161 115 107 289 255 223 214 103 138 225 120 182 160 207 203 172 233 258 200 175 226 170 274 200 209 207 104 239
233 225 227 220 220 218 212 207 209 204 207 203 203 205 192 184 256 178 159 129 123 69 287 252 156 191 136 157 134 25 45 65 194 187 123 237 197 159 180 221 158 223 152 167 158 184 74
239 226 224 225 219 215 211 207 207 205 207 203 198 202 184 187 187 235 136 125 88 67 244 206 142 169 129 158 155 128 135 54 172 183 197 232 237 180 202 116 165 132 79 54 54 93 303
237 226 219 222 224 216 216 211 209 207 204 202 202 200 178 166 198 158 147 117 97 219 262 199 186 162 183 169 178 170 164 179 160 130 224 239 229 230 174 116 45 90 75 314 337 3 227
245 241 232 218 226 225 218 210 208 206 205 203 204 202 193 175 168 149 139 108 208 191 214 163 146 134 178 158 206 184 144 204 230 209 127 179 273 171 178 197 184 174 159 164 223 214 249
251 237 235 232 231 222 219 219 218 209 203 201 196 182 157 172 148 183 157 198 209 175 188 158 83 137 216 210 147 148 200 208 207 179 178 168 266 122 140 168 139 185 179 191 107 44 49
247 233 228 224 227 222 220 213 217 211 196 158 130 122 147 153 158 162 183 205 208 209 152 162 174 163 175 201 166 177 188 201 201 193 164 203 194 238 239 117 50 147 160 77 359 184 245
21 234 227 225 216 198 173 150 152 147 141 125 88 127 215 129 199 147 197 193 224 249 169 177 191 144 191 183 189 192 201 242 168 175 134 143 133 236 113 208 184 142 204 153 146 154 179
45 42 66 79 91 138 162 156 153 146 135 82 122 131 201 143 114 335 187 169 190 195 55 57 87 140 173 177 166 217 206 212 173 157 158 198 143 179 200 306 301 210 188 164 153 243 246
66 66 63 69 72 73 97 159 160 147 142 130 110 94 291 179 181 187 209 187 206 136 163 192 203 189 188 178 191 208 200 339 161 163 165 178 168 27 348 343 333 202 168 131 93 78 213
119 110 95 98 93 92 82 71 156 84 68 102 125 132 251 253 113 178 178 195 199 203 178 151 180 138 119 213 247 205 168 224 78 177 120 110 159 174 215 186 143 207 182 143 158 155 189
173 155 138 132 118 114 105 88 70 64 33 37 175 162 223 176 205 192 191 181 192 181 189 192 209 194 172 197 197 212 148 131 18 142 122 143 193 159 164 141 182 221 237 166 199 205 206
194 174 165 157 151 157 149 135 97 80 15 69 135 148 140 262 178 188 185 196 193 184 161 203 203 182 185 206 180 193 162 178 190 185 148 32 199 101 300 201 218 256 259 194 215 242 243
249 209 192 187 178 177 167 169 145 122 73 65 55 13 84 120 288 189 196 181 200 154 269 177 198 143 193 207 115 91 76 99 160 159 175 157 138 112 250 57 75 300 230 226 238 211 217
226 220 227 201 194 190 184 180 183 150 100 114 116 115 141 154 171 230 206 197 199 199 187 160 121 187 124 110 94 44 39 30 54 100 122 138 108 96 180 42 253 252 263 237 226 248 201
233 231 225 222 208 203 195 191 187 181 160 123 180 126 122 160 164 267 209 166 103 106 68 90 33 315 141 76 79 60 349 3 313 237 223 173 136 132 169 204 310 288 227 177 177 256 186
236 229 225 223 215 211 204 206 200 192 177 118 153 174 126 109 234 212 189 186 156 137 77 44 2 355 76 86 102 157 198 179 258 290 16 168 62 175 116 171 211 250 234 125 116 285 219
235 231 224 221 221 215 209 206 205 203 195 128 174 159 96 128 246 158 188 202 137 119 108 130 155 49 27 109 124 163 227 173 195 179 177 101 176 215 222 237 281 243 231 131 112 242 195
239 226 226 219 216 213 211 208 211 213 199 153 202 163 131 150 281 210 230 154 93 134 139 176 96 326 79 137 150 179 177 209 152 179 171 156 160 195 134 201 269 181 91 183 206 173 176
234 231 222 218 220 221 219 217 212 210 206 173 155 161 113 112 240 245 270 258 270 178 125 267 141 153 160 115 202 106 175 68 160 228 143 223 190 179 188 203 235 196 198 221 159 183 208